Location: Holmbach
(49.5093°N, 8.8411°E)
Time: 20:16:41
(UTC+00:00)

Cosmos 1844 - Pass Details

Date: 17 June 2025
Orbit: 822 x 866 km, 70.9° (Epoch: 16 July)

Event Time Altitude Azimuth Distance (km) Brightness Sun altitude
Exits shadow 22:16:08 21° 187° (S) 1,763 4.8 -15.5°
Maximum altitude 22:19:47 61° 113° (ESE) 929 3.7 -15.6°
Drops below altitude 10° 22:25:15 10° 34° (NE) 2,432 6.7 -15.9°
Sets 22:27:43 0° 32° (NNE) 3,371 7.5 -15.9°
